Laramie, WY

3:42 AM MST on January 18, 2018 (GMT -0700)
Laramie Regional

Weather History for KLAR - April, 2013

Change the Weather History Date:

Tuesday, April 23, 2013

  Actual Average Record
Temperature  
Mean Temperature 19 °F 40 °F  
Max Temperature 32 °F 53 °F 75 °F (2012)
Min Temperature 6 °F 26 °F 3 °F (1968)
Degree Days  
Heating Degree Days 46 25  
Month to date heating degree days 817 649  
Since 1 July heating degree days 7782 7884  
Cooling Degree Days 0 0  
Month to date cooling degree days 0 0  
Year to date cooling degree days 0 0  
Moisture  
Dew Point 10 °F    
Average Humidity 69    
Maximum Humidity 91    
Minimum Humidity 47    
Precipitation  
Precipitation T in 0.04 in 1.00 in (2010)
Month to date precipitation 0.47 0.76  
Year to date precipitation 1.38 1.95  
Sea Level Pressure  
Sea Level Pressure 30.19 in    
Wind  
Wind Speed 8 mph (NW)    
Max Wind Speed 24 mph    
Max Gust Speed 29 mph    
Visibility 8 miles    
Events Snow    
T = Trace of Precipitation, MM = Missing Value Source: NWS Daily Summary

Daily Weather History Graph

Daily Weather History Graph

Search for Another Location

Airport or City:

Trip Planner

Search our weather history database for the weather conditions in past years. The results will help you decide how hot, cold, wet, or windy it might be!

Date:

Astronomy

Apr. 23, 2013 Rise Set
Actual Time 6:10 AM MDT 7:51 PM MDT
Civil Twilight 5:41 AM MDT 8:21 PM MDT
Nautical Twilight 5:05 AM MDT 8:56 PM MDT
Astronomical Twilight 4:27 AM MDT 9:35 PM MDT
Moon 5:48 PM MDT (4/23) 4:41 AM MDT (4/23)
Length of Visible Light 14h 39m
Length of Day
13h 41m
Waxing Gibbous, 94% of the Moon is Illuminated
Apr 23
Waxing Gibbous
Apr 25
Full
May 2
Last Quarter
May 9
New
May 17
First Quarter

Hourly Weather History & Observations

Time (MDT) Temp. Windchill Dew Point Humidity Pressure Visibility Wind Dir Wind Speed Gust Speed Precip Events Conditions
12:53 AM 15.1 °F -0.1 °F 9.0 °F 77% 30.27 in - East 15.0 mph - 0.00 in   Overcast
1:49 AM 14.0 °F -0.2 °F 8.6 °F 79% 30.12 in - East 12.7 mph - N/A   Overcast
1:53 AM 14.0 °F 0.5 °F 8.1 °F 77% 30.25 in - East 11.5 mph - N/A   Overcast
2:23 AM 14.0 °F 2.9 °F 8.6 °F 79% 30.11 in 10.0 mi East 8.1 mph - N/A   Overcast
2:53 AM 14.0 °F 2.0 °F 8.1 °F 77% 30.22 in 10.0 mi East 9.2 mph - N/A   Overcast
4:02 AM 14.0 °F 6.5 °F 8.6 °F 79% 30.09 in 2.5 mi East 4.6 mph - 0.00 in Snow Light Snow
4:35 AM 12.2 °F - 8.6 °F 85% 30.09 in 4.0 mi Calm Calm - 0.00 in Snow Light Snow
4:53 AM 12.9 °F - 9.0 °F 84% 30.24 in 8.0 mi Calm Calm - 0.00 in   Overcast
5:13 AM 10.4 °F - 8.6 °F 92% 30.08 in 3.0 mi Calm Calm - 0.00 in Snow Light Snow
5:38 AM 8.6 °F 0.1 °F 6.8 °F 92% 30.08 in 6.0 mi NW 4.6 mph - 0.00 in   Overcast
5:53 AM 7.0 °F -4.5 °F 5.0 °F 92% 30.27 in 9.0 mi NW 6.9 mph - 0.00 in   Mostly Cloudy
6:07 AM 6.8 °F -2.0 °F 5.0 °F 92% 30.08 in 10.0 mi NNW 4.6 mph - N/A   Mostly Cloudy
6:48 AM 8.6 °F -1.3 °F 5.0 °F 85% 30.10 in 10.0 mi NNW 5.8 mph - N/A   Mostly Cloudy
6:53 AM 8.1 °F -0.5 °F 6.1 °F 92% 30.29 in - NNW 4.6 mph - N/A   Mostly Cloudy
7:01 AM 8.6 °F -1.3 °F 6.8 °F 92% 30.10 in - NNW 5.8 mph - 0.00 in Snow Light Snow
7:30 AM 8.6 °F -1.3 °F 6.8 °F 92% 30.11 in 4.0 mi NNW 5.8 mph - 0.00 in   Overcast
7:45 AM 10.4 °F 0.8 °F 8.6 °F 92% 30.11 in 5.0 mi NNW 5.8 mph - 0.00 in Snow Light Snow
7:53 AM 10.0 °F -0.9 °F 7.0 °F 87% 30.30 in 9.0 mi NNW 6.9 mph - 0.00 in   Overcast
8:53 AM 10.0 °F 1.8 °F 7.0 °F 87% 30.30 in 5.0 mi NW 4.6 mph - N/A   Overcast
9:16 AM 12.2 °F 2.9 °F 8.6 °F 85% 30.11 in - NW 5.8 mph - N/A   Scattered Clouds
9:53 AM 12.9 °F 2.6 °F 9.0 °F 84% 30.29 in 10.0 mi NW 6.9 mph - N/A   Clear
10:53 AM 16.0 °F 8.8 °F 10.9 °F 81% 30.27 in - Variable 4.6 mph - N/A   Partly Cloudy
11:53 AM 19.0 °F 10.0 °F 14.0 °F 81% 30.25 in 10.0 mi WNW 6.9 mph - N/A   Clear
12:53 PM 21.9 °F 13.4 °F 12.9 °F 68% 30.22 in - WNW 6.9 mph - N/A   Clear
1:53 PM 23.0 °F 13.9 °F 12.9 °F 65% 30.20 in 10.0 mi NW 8.1 mph - N/A   Clear
2:53 PM 25.0 °F 16.3 °F 14.0 °F 63% 30.19 in 10.0 mi NW 8.1 mph - N/A   Clear
3:53 PM 28.0 °F 18.1 °F 16.0 °F 61% 30.17 in 10.0 mi NW 11.5 mph - N/A   Clear
4:53 PM 30.9 °F 18.1 °F 12.9 °F 47% 30.14 in - NW 21.9 mph - N/A   Clear
5:53 PM 30.0 °F 20.0 °F 12.9 °F 49% 30.18 in - WNW 12.7 mph - N/A   Clear
6:53 PM 28.9 °F 21.1 °F 12.0 °F 49% 30.19 in - West 8.1 mph - N/A   Clear
7:53 PM 26.1 °F 18.4 °F 15.1 °F 63% 30.21 in - WSW 6.9 mph - N/A   Partly Cloudy
8:53 PM 26.1 °F 15.0 °F 14.0 °F 60% 30.22 in - West 12.7 mph - N/A   Mostly Cloudy
9:53 PM 24.1 °F 17.0 °F 14.0 °F 65% 30.23 in - West 5.8 mph - N/A   Scattered Clouds
10:53 PM 21.9 °F 14.5 °F 15.1 °F 75% 30.24 in - WNW 5.8 mph - N/A   Clear
11:53 PM 19.9 °F 9.3 °F 12.0 °F 71% 30.23 in - NW 9.2 mph - N/A   Clear